Lexington Weather

Lexington, Massachusetts, USA

23°F
1/21/2021 9:21am 
  • Lexington Conditions: Clear
  • Temperature: 23.0°F / -5.0°CWarmer 1.4°F than last hour.
  • Dew Point: 12.2°FIncreased 0.2°Fsince last hour.
  • Relative Humidity: 63%Decreased 3.0% since last hour.
  • Wind: Wind from SW SW Calm, 10-min avg: 1 mph, gust: 5 mph
  • Barometer: 29.76 inFalling 0.04  inHg/hr Falling Slowly
  • Visibility: 10 miles
  • Snow Today: Trace
  •   

Regional Weather Roundup
for Boston / Norton, MA

        
000
ASUS41 KBOX 170804
RWRBOX

REGIONAL WEATHER ROUNDUP
NATIONAL WEATHER SERVICE BOSTON/NORTON MA
300 AM EST SUN JAN 17 2021

NOTE:  "FAIR" INDICATES FEW OR NO CLOUDS BELOW 12,000 FEET WITH NO 
SIGNIFICANT WEATHER AND/OR OBSTRUCTIONS TO VISIBILITY.

MAZALL-170900-
EASTERN MASSACHUSETTS
  
CITY           SKY/WX    TMP DP  RH WIND       PRES   REMARKS
BOSTON         PTCLDY    36  25  64 W24G32    29.29R WCI  24          
BEVERLY        CLOUDY    37  27  67 W15G29    29.25R WCI  28          
LAWRENCE       NOT AVBL                                               
BEDFORD        PTCLDY    37  26  64 W17G26    29.27R WCI  27          
BLUE HILL        N/A     33  25  72 W20G33    29.27R WCI  21          
NORWOOD        CLEAR     37  25  61 SW12G20   29.32R WCI  29          
MARSHFIELD     CLEAR     37  28  70 SW10G22   29.31R WCI  30          
PLYMOUTH       CLEAR     35  27  72 SW18      29.33R WCI  24          
TAUNTON        CLEAR     36  26  67 SW12G21   29.35R WCI  28          
NEW BEDFORD    CLEAR     36  27  69 SW13      29.36R WCI  27          
$$

MAZALL-170900-
CAPE COD AND THE ISLANDS
  
CITY           SKY/WX    TMP DP  RH WIND       PRES   REMARKS
FALMOUTH       NOT AVBL                                               
HYANNIS        CLEAR     37  28  70 W20G25    29.34R WCI  27          
CHATHAM        CLEAR     37  27  67 SW14G25   29.36R WCI  28          
NANTUCKET      PTCLDY    39  30  70 W20G29    29.39R WCI  29          
MARTHAS VNYRD  CLEAR     38  27  64 W18G29    29.39R WCI  28          
$$
 
MAZALL-170900-
CENTRAL AND WESTERN MASSACHUSETTS
  
CITY           SKY/WX    TMP DP  RH WIND       PRES   REMARKS
WORCESTER      MOCLDY    33  22  63 W20       29.30R WCI  21          
FITCHBURG      FLURRIES  36  27  69 W14G22    29.29R WCI  27          
ORANGE         CLOUDY    35  25  66 SW10G18   29.32R WCI  27          
SPRINGFIELD    CLOUDY    36  21  55 W13G18    29.36R WCI  27          
WESTFIELD      PTCLDY    36  23  59 W15G23    29.36R WCI  27          
NORTH ADAMS    LGT SNOW  34  24  67 W18G26    29.34R WCI  23          
PITTSFIELD     CLOUDY    32  23  69 W18G29    29.33R WCI  20          
$$
 
RIZALL-170900-
RHODE ISLAND
  
CITY           SKY/WX    TMP DP  RH WIND       PRES   REMARKS
PROVIDENCE     CLEAR     35  26  69 W17G24    29.38R WCI  25          
NEWPORT        CLEAR     34  26  72 W8        29.39R WCI  27          
BLOCK ISLAND   PTCLDY    37  26  64 W23G36    29.43R WCI  26          
SMITHFIELD     CLEAR     32  27  81 W12G21    29.35R WCI  23          
WESTERLY       CLEAR     34  25  69 W9G21     29.42R WCI  27          
$$
 
CTZALL-170900-
CONNECTICUT
  
CITY           SKY/WX    TMP DP  RH WIND       PRES   REMARKS
BRADLEY INTL   PTCLDY    33  24  69 SW8       29.39R WCI  26          
HARTFORD       CLEAR     36  25  64 SW10      29.41R WCI  28          
BRIDGEPORT     CLEAR     37  27  67 W10       29.47R WCI  30          
DANBURY        CLEAR     34  23  64 W9        29.46R WCI  27          
GROTON         CLEAR     36  26  67 W17G24    29.43  WCI  26          
NEW HAVEN      CLEAR     38  27  64 SW9G17    29.46R WCI  31          
CHESTER        FAIR      34  25  69 W9G17     29.43R WCI  26          
MERIDEN        PTCLDY    36  24  62 SW6       29.44R WCI  31          
WILLIMANTIC    CLEAR     33  25  72 SW6       29.40R WCI  28          
OXFORD         PTCLDY    33  26  75 SW10      29.43R WCI  25          
$$

MEZ002-015-021-024-NHZ003-005-008-011-012-014-VTZ005-008-170900-
NORTHERN NEW ENGLAND
  
CITY           SKY/WX    TMP DP  RH WIND       PRES   REMARKS
PORTLAND ME    CLOUDY    36  33  89 W14G23    29.13R WCI  27          
BANGOR ME      CLOUDY    39  36  89 S12       29.04F WCI  32          
CONCORD NH     MOCLDY    35  27  72 W10G18    29.21R WCI  27          
MANCHESTER NH  MOCLDY    37  26  64 SW12G18   29.22R WCI  29          
NASHUA NH      MOCLDY    36  29  75 W9G22     29.26R WCI  29          
PORTSMOUTH NH  PTCLDY    36  28  73 SW12      29.19R WCI  27          
JAFFREY NH     CLOUDY    33  26  75 SW9G20    29.25R WCI  25          
KEENE NH       CLOUDY    35  27  72 SW9       29.29R WCI  28          
BURLINGTON VT  LGT SNOW  34  31  88 S5        29.21R FOG     WCI  30  
MT. WASHINGTON SNOW      14  14 100 W60         N/A  VSB 1/16WCI -13  
$$

NYZ052-076-170900-
EASTERN NEW YORK
  
CITY           SKY/WX    TMP DP  RH WIND       PRES   REMARKS
ALBANY         CLOUDY    33  23  66 SW13      29.38R WCI  24          
NEW YORK CITY  CLEAR     39  25  57 W17G30    29.52R WCI  30          
$$
 
ANZALL-170900-
MARINE OBSERVATIONS
  
STATION/POSITION TIME  TEMP    WIND        PRES    VSBY  WAVE
                       AIR SEA DIR/SP/G                  HT/PER
                 (UTC) (F)     (DEG/KT/KT) (MB)    (MI)  (FT/S)
BOSTON BUOY      0750   39 43  240/ 25/ 35  991.8R         7/11
BUZZARDS BAY     0700          270/ 30/ 33  995.4R
NANTUCKET SOUND  0750      41  250/ 23/ 31   N/A           3/ 4
MASS BAY-STELLWA 0704   40     250/ 23/ 31  988.7R  1 7/8  9/11
ISLE OF SHOALS   0700   38     250/ 30/ 35  987.2S
S OF BLOCK IS    0756      47                N/A          12/11
$$

......................KEY.........................
  SKY/WX - SKY CONDITION/PRESENT WEATHER
  TMP    - TEMPERATURE IN FAHRENHEIT
  DWPT   - DEWPOINT IN FAHRENHEIT
  RH     - RELATIVE HUMIDITY IN PERCENT
  WIND   - DIRECTION AND SPEED IN MPH
  PRES   - MEAN SEA LEVEL PRESSURE IN INCHES OF HG
  WCI    - WIND CHILL INDEX
  VSB    - VISIBILITY IN MILES
  HX     - HEAT INDEX
  TC     - TEMPERATURE IN CELSIUS
  VRB    - VARIABLE WIND DIRECTION
  N/A    - NOT AVAILABLE
  
      

Other recent Regional Weather Roundups

Thu Jan 21, 9:04am

Thu Jan 21, 7:04am

Thu Jan 21, 6:04am

Thu Jan 21, 5:04am

Thu Jan 21, 4:04am

Thu Jan 21, 3:04am

Thu Jan 21, 2:04am

Thu Jan 21, 1:04am

Thu Jan 21, 12:04am

Wed Jan 20, 11:04pm

Wed Jan 20, 10:05pm

Wed Jan 20, 9:04pm

Wed Jan 20, 8:04pm

Wed Jan 20, 7:04pm

Wed Jan 20, 6:05pm

Wed Jan 20, 5:05pm

Wed Jan 20, 1:04pm

Wed Jan 20, 12:04pm

Wed Jan 20, 11:04am

Wed Jan 20, 10:04am

Wed Jan 20, 9:05am

Wed Jan 20, 8:04am

Wed Jan 20, 7:04am

Wed Jan 20, 6:04am

Wed Jan 20, 5:04am

Wed Jan 20, 4:04am

Wed Jan 20, 3:05am

Wed Jan 20, 2:04am

Wed Jan 20, 1:04am

Wed Jan 20, 12:04am

Tue Jan 19, 11:04pm

Tue Jan 19, 10:04pm

Tue Jan 19, 9:04pm

Tue Jan 19, 8:04pm

Tue Jan 19, 7:04pm

Tue Jan 19, 6:05pm

Tue Jan 19, 5:04pm

Tue Jan 19, 4:05pm

Tue Jan 19, 3:04pm

Tue Jan 19, 2:04pm

Tue Jan 19, 1:04pm

Tue Jan 19, 12:05pm

Tue Jan 19, 11:04am

Tue Jan 19, 10:05am

Tue Jan 19, 9:04am

Tue Jan 19, 8:04am

Tue Jan 19, 7:04am

Tue Jan 19, 6:04am

Tue Jan 19, 5:04am

Tue Jan 19, 4:04am

Tue Jan 19, 3:04am

Tue Jan 19, 2:04am

Tue Jan 19, 1:04am

Tue Jan 19, 12:04am

Mon Jan 18, 11:04pm

Mon Jan 18, 10:04pm

Mon Jan 18, 9:04pm

Mon Jan 18, 8:05pm

Mon Jan 18, 7:04pm

Mon Jan 18, 6:05pm

Mon Jan 18, 5:04pm

Mon Jan 18, 4:04pm

Mon Jan 18, 3:04pm

Mon Jan 18, 2:04pm

Mon Jan 18, 1:04pm

Mon Jan 18, 12:04pm

Mon Jan 18, 11:04am

Mon Jan 18, 10:04am

Mon Jan 18, 9:04am

Mon Jan 18, 8:04am

Mon Jan 18, 7:04am

Mon Jan 18, 6:04am

Mon Jan 18, 5:04am

Mon Jan 18, 4:04am

Mon Jan 18, 3:04am

Mon Jan 18, 2:04am

Mon Jan 18, 1:04am

Mon Jan 18, 12:04am

Sun Jan 17, 11:04pm

Sun Jan 17, 10:04pm

Sun Jan 17, 9:04pm

Sun Jan 17, 8:04pm

Sun Jan 17, 7:04pm

Sun Jan 17, 6:04pm

Sun Jan 17, 5:04pm

Sun Jan 17, 4:05pm

Sun Jan 17, 3:04pm

Sun Jan 17, 2:04pm

Sun Jan 17, 1:04pm

Sun Jan 17, 12:04pm

Sun Jan 17, 11:04am

Sun Jan 17, 10:04am

Sun Jan 17, 9:04am

Sun Jan 17, 8:04am

Sun Jan 17, 7:04am

Sun Jan 17, 6:04am

Sun Jan 17, 5:04am

Sun Jan 17, 4:04am

Sun Jan 17, 2:04am

Sun Jan 17, 1:04am

Sun Jan 17, 12:04am

Sat Jan 16, 11:05pm

Sat Jan 16, 10:04pm

Sat Jan 16, 9:04pm

Sat Jan 16, 8:05pm

Sat Jan 16, 7:04pm

Sat Jan 16, 6:04pm

Sat Jan 16, 5:05pm

Sat Jan 16, 4:05pm

Sat Jan 16, 3:05pm

Sat Jan 16, 2:04pm

Sat Jan 16, 1:04pm

Sat Jan 16, 12:04pm

Sat Jan 16, 11:04am

Sat Jan 16, 10:05am

Sat Jan 16, 9:04am

Sat Jan 16, 8:04am

Sat Jan 16, 7:04am

Sat Jan 16, 6:04am

Sat Jan 16, 5:04am

Sat Jan 16, 4:04am

Sat Jan 16, 3:05am

Sat Jan 16, 2:04am

Sat Jan 16, 1:04am

Sat Jan 16, 12:05am

Fri Jan 15, 11:05pm

Fri Jan 15, 10:04pm

Fri Jan 15, 9:04pm

Fri Jan 15, 8:04pm

Fri Jan 15, 7:05pm

Fri Jan 15, 6:05pm

Fri Jan 15, 5:05pm

Fri Jan 15, 4:05pm

Fri Jan 15, 3:04pm

Fri Jan 15, 2:05pm

Fri Jan 15, 1:04pm

Fri Jan 15, 12:05pm

Fri Jan 15, 11:04am

Fri Jan 15, 10:04am

Fri Jan 15, 9:05am

Fri Jan 15, 8:04am

Fri Jan 15, 7:04am

Fri Jan 15, 6:04am

Fri Jan 15, 5:05am

Fri Jan 15, 4:04am

Fri Jan 15, 3:04am

Fri Jan 15, 2:04am

Fri Jan 15, 1:04am

Fri Jan 15, 12:05am

Thu Jan 14, 11:04pm

Thu Jan 14, 10:04pm

Thu Jan 14, 9:04pm

Thu Jan 14, 8:05pm

Thu Jan 14, 7:04pm

Thu Jan 14, 6:04pm

Thu Jan 14, 5:04pm

Thu Jan 14, 4:05pm

Thu Jan 14, 3:04pm

Thu Jan 14, 2:04pm

Thu Jan 14, 1:04pm

Thu Jan 14, 12:05pm

Thu Jan 14, 11:05am

Thu Jan 14, 10:04am

Thu Jan 14, 9:04am

Thu Jan 14, 8:04am

Thu Jan 14, 7:04am

Thu Jan 14, 6:04am

Thu Jan 14, 5:04am

Thu Jan 14, 4:04am

Thu Jan 14, 3:04am

Thu Jan 14, 2:04am

Thu Jan 14, 1:04am

Thu Jan 14, 12:04am

Wed Jan 13, 11:04pm

Wed Jan 13, 10:04pm

Wed Jan 13, 9:04pm

Wed Jan 13, 8:05pm

Wed Jan 13, 7:04pm

Wed Jan 13, 6:04pm

Wed Jan 13, 5:04pm

Wed Jan 13, 4:04pm

Wed Jan 13, 3:05pm

Wed Jan 13, 2:04pm

Wed Jan 13, 1:04pm

Wed Jan 13, 12:04pm

Wed Jan 13, 11:04am

Wed Jan 13, 10:04am

Wed Jan 13, 9:05am

Wed Jan 13, 8:04am

Wed Jan 13, 7:04am

Wed Jan 13, 6:04am

Wed Jan 13, 5:04am

Wed Jan 13, 4:04am

Wed Jan 13, 3:04am

Wed Jan 13, 2:04am

Wed Jan 13, 1:04am

Wed Jan 13, 12:05am

Tue Jan 12, 11:04pm

Tue Jan 12, 10:04pm

Tue Jan 12, 9:04pm

Tue Jan 12, 8:05pm

Tue Jan 12, 7:04pm

Meta data:

ID: 10ecd1f6-214b-4f86-a353-38c850bb1526
Link: https://api.weather.gov/products/10ecd1f6-214b-4f86-a353-38c850bb1526